Time,TemperatureF,DewpointF,PressureIn,WindDirection,WindDirectionDegrees,WindSpeedMPH,WindSpeedGustMPH,Humidity,HourlyPrecipIn,Conditions,Clouds,dailyrainin,SoftwareType,DateUTC
2013-05-25 00:02:00,53.0,49.0,30.24,North,0,0.0,0.0,86,0.00,,,0.00,,2013-05-25 05:02:00,
2013-05-25 00:12:00,53.0,49.0,30.24,North,0,0.0,0.0,86,0.00,,,0.00,,2013-05-25 05:12:00,
2013-05-25 00:22:00,53.0,49.0,30.23,North,0,0.0,0.0,87,0.00,,,0.00,,2013-05-25 05:22:00,
2013-05-25 00:32:00,53.0,49.0,30.23,North,0,0.0,0.0,86,0.00,,,0.00,,2013-05-25 05:32:00,
2013-05-25 00:42:00,53.0,49.0,30.23,North,0,0.0,0.0,86,0.00,,,0.00,,2013-05-25 05:42:00,
2013-05-25 00:52:00,54.0,48.0,30.23,North,0,0.0,0.0,81,0.00,,,0.00,,2013-05-25 05:52:00,
2013-05-25 01:02:00,55.0,49.0,30.23,North,0,0.0,0.0,79,0.00,,,0.00,,2013-05-25 06:02:00,
2013-05-25 01:12:00,55.0,48.0,30.22,North,0,0.0,0.0,78,0.00,,,0.00,,2013-05-25 06:12:00,
2013-05-25 01:21:00,55.0,48.0,30.22,North,0,0.0,0.0,78,0.00,,,0.00,,2013-05-25 06:21:00,
2013-05-25 01:32:00,55.0,49.0,30.21,North,0,0.0,0.0,80,0.00,,,0.00,,2013-05-25 06:32:00,
2013-05-25 01:42:00,55.0,49.0,30.21,North,0,0.0,0.0,80,0.00,,,0.00,,2013-05-25 06:42:00,
2013-05-25 01:52:00,54.0,48.0,30.21,North,0,0.0,0.0,81,0.00,,,0.00,,2013-05-25 06:52:00,
2013-05-25 02:01:00,53.0,48.0,30.21,North,0,0.0,0.0,83,0.00,,,0.00,,2013-05-25 07:01:00,
2013-05-25 02:11:00,53.0,48.0,30.21,North,0,0.0,0.0,83,0.00,,,0.00,,2013-05-25 07:11:00,
2013-05-25 02:21:00,52.0,48.0,30.21,North,0,0.0,0.0,85,0.00,,,0.00,,2013-05-25 07:21:00,
2013-05-25 02:32:00,51.0,48.0,30.22,North,0,0.0,0.0,89,0.00,,,0.00,,2013-05-25 07:32:00,
2013-05-25 02:42:00,51.0,48.0,30.22,North,0,0.0,0.0,89,0.00,,,0.00,,2013-05-25 07:42:00,
2013-05-25 02:52:00,50.0,47.0,30.22,North,0,0.0,0.0,90,0.00,,,0.00,,2013-05-25 07:52:00,
2013-05-25 03:02:00,50.0,47.0,30.22,North,0,0.0,0.0,91,0.00,,,0.00,,2013-05-25 08:02:00,
2013-05-25 03:11:00,50.0,47.0,30.22,North,0,0.0,0.0,91,0.00,,,0.00,,2013-05-25 08:11:00,
2013-05-25 03:22:00,50.0,48.0,30.21,NE,51,0.0,2.0,92,0.00,,,0.00,,2013-05-25 08:22:00,
2013-05-25 03:32:00,50.0,48.0,30.21,North,0,0.0,0.0,92,0.00,,,0.00,,2013-05-25 08:32:00,
2013-05-25 03:42:00,50.0,47.0,30.22,North,0,0.0,0.0,91,0.00,,,0.00,,2013-05-25 08:42:00,
2013-05-25 03:52:00,50.0,47.0,30.22,North,0,0.0,0.0,91,0.00,,,0.00,,2013-05-25 08:52:00,
2013-05-25 04:01:00,50.0,47.0,30.22,North,0,0.0,0.0,91,0.00,,,0.00,,2013-05-25 09:01:00,
2013-05-25 04:11:00,50.0,47.0,30.22,North,0,0.0,0.0,91,0.00,,,0.00,,2013-05-25 09:11:00,
2013-05-25 04:21:00,49.0,46.0,30.22,North,0,0.0,0.0,91,0.00,,,0.00,,2013-05-25 09:21:00,
2013-05-25 04:33:00,49.0,47.0,30.22,North,0,0.0,0.0,92,0.00,,,0.00,,2013-05-25 09:33:00,
2013-05-25 04:42:00,49.0,47.0,30.22,North,0,0.0,0.0,92,0.00,,,0.00,,2013-05-25 09:42:00,
2013-05-25 04:53:00,48.0,46.0,30.22,North,0,0.0,0.0,92,0.00,,,0.00,,2013-05-25 09:53:00,
2013-05-25 05:02:00,48.0,46.0,30.22,North,0,0.0,0.0,92,0.00,,,0.00,,2013-05-25 10:02:00,
2013-05-25 05:12:00,48.0,46.0,30.22,North,0,0.0,0.0,92,0.00,,,0.00,,2013-05-25 10:12:00,
2013-05-25 05:22:00,48.0,46.0,30.22,North,0,0.0,0.0,93,0.00,,,0.00,,2013-05-25 10:22:00,
2013-05-25 05:32:00,48.0,46.0,30.21,North,0,0.0,0.0,93,0.00,,,0.00,,2013-05-25 10:32:00,
2013-05-25 05:42:00,48.0,46.0,30.21,North,0,0.0,0.0,93,0.00,,,0.00,,2013-05-25 10:42:00,
2013-05-25 05:52:00,48.0,46.0,30.21,North,0,0.0,0.0,93,0.00,,,0.00,,2013-05-25 10:52:00,
2013-05-25 06:02:00,48.0,46.0,30.22,North,0,0.0,0.0,94,0.00,,,0.00,,2013-05-25 11:02:00,
2013-05-25 06:12:00,48.0,46.0,30.22,North,0,0.0,0.0,94,0.00,,,0.00,,2013-05-25 11:12:00,
2013-05-25 06:21:00,48.0,46.0,30.22,North,0,0.0,0.0,94,0.00,,,0.00,,2013-05-25 11:21:00,
2013-05-25 06:32:00,48.0,47.0,30.24,North,0,0.0,0.0,95,0.00,,,0.00,,2013-05-25 11:32:00,
2013-05-25 06:41:00,48.0,47.0,30.24,North,0,0.0,0.0,95,0.00,,,0.00,,2013-05-25 11:41:00,
2013-05-25 06:52:00,48.0,47.0,30.24,North,0,0.0,0.0,95,0.00,,,0.00,,2013-05-25 11:52:00,
2013-05-25 07:01:00,49.0,48.0,30.25,North,0,0.0,0.0,95,0.00,,,0.00,,2013-05-25 12:01:00,
2013-05-25 07:12:00,49.0,48.0,30.25,North,0,0.0,0.0,95,0.00,,,0.00,,2013-05-25 12:12:00,
2013-05-25 07:22:00,51.0,50.0,30.27,North,0,0.0,0.0,96,0.00,,,0.00,,2013-05-25 12:22:00,
2013-05-25 07:32:00,52.0,51.0,30.27,North,0,0.0,0.0,96,0.00,,,0.00,,2013-05-25 12:32:00,
2013-05-25 07:42:00,52.0,51.0,30.27,North,0,0.0,0.0,96,0.00,,,0.00,,2013-05-25 12:42:00,
2013-05-25 07:52:00,56.0,50.0,30.27,North,0,0.0,0.0,81,0.00,,,0.00,,2013-05-25 12:52:00,
2013-05-25 08:02:00,58.0,50.0,30.27,North,0,0.0,0.0,74,0.00,,,0.00,,2013-05-25 13:02:00,
2013-05-25 08:11:00,58.0,50.0,30.27,North,0,0.0,0.0,74,0.00,,,0.00,,2013-05-25 13:11:00,
2013-05-25 08:21:00,59.0,48.0,30.27,ENE,70,1.0,3.0,67,0.00,,,0.00,,2013-05-25 13:21:00,
2013-05-25 08:32:00,60.0,49.0,30.27,East,82,0.0,3.0,67,0.00,,,0.00,,2013-05-25 13:32:00,
2013-05-25 08:42:00,60.0,49.0,30.27,East,82,0.0,3.0,67,0.00,,,0.00,,2013-05-25 13:42:00,
2013-05-25 08:52:00,60.0,48.0,30.27,East,87,1.0,3.0,65,0.00,,,0.00,,2013-05-25 13:52:00,
2013-05-25 09:02:00,62.0,49.0,30.28,ENE,72,0.0,2.0,63,0.00,,,0.00,,2013-05-25 14:02:00,
2013-05-25 09:11:00,62.0,49.0,30.28,ENE,72,0.0,2.0,63,0.00,,,0.00,,2013-05-25 14:11:00,
2013-05-25 09:22:00,62.0,48.0,30.28,ENE,77,1.0,4.0,61,0.00,,,0.00,,2013-05-25 14:22:00,
2013-05-25 09:32:00,63.0,48.0,30.28,East,87,1.0,6.0,58,0.00,,,0.00,,2013-05-25 14:32:00,
2013-05-25 09:42:00,63.0,48.0,30.28,East,87,1.0,6.0,58,0.00,,,0.00,,2013-05-25 14:42:00,
2013-05-25 09:52:00,63.0,48.0,30.28,East,87,1.0,6.0,58,0.00,,,0.00,,2013-05-25 14:52:00,
2013-05-25 10:01:00,65.0,49.0,30.27,East,93,1.0,5.0,57,0.00,,,0.00,,2013-05-25 15:01:00,
2013-05-25 10:11:00,65.0,49.0,30.27,East,93,1.0,5.0,57,0.00,,,0.00,,2013-05-25 15:11:00,
2013-05-25 10:22:00,66.0,49.0,30.27,East,85,1.0,5.0,55,0.00,,,0.00,,2013-05-25 15:22:00,
2013-05-25 10:33:00,66.0,50.0,30.28,East,91,1.0,10.0,56,0.00,,,0.00,,2013-05-25 15:33:00,
2013-05-25 10:43:00,66.0,50.0,30.28,East,91,1.0,10.0,56,0.00,,,0.00,,2013-05-25 15:43:00,
2013-05-25 10:53:00,67.0,48.0,30.26,East,89,1.0,6.0,50,0.00,,,0.00,,2013-05-25 15:53:00,
2013-05-25 11:03:00,68.0,48.0,30.26,East,92,1.0,5.0,49,0.00,,,0.00,,2013-05-25 16:03:00,
2013-05-25 11:12:00,68.0,48.0,30.26,East,92,1.0,5.0,49,0.00,,,0.00,,2013-05-25 16:12:00,
2013-05-25 11:23:00,68.0,46.0,30.25,ESE,112,0.0,3.0,45,0.00,,,0.00,,2013-05-25 16:23:00,
2013-05-25 11:32:00,69.0,46.0,30.25,ESE,120,0.0,5.0,43,0.00,,,0.00,,2013-05-25 16:32:00,
2013-05-25 11:42:00,69.0,46.0,30.25,ESE,120,0.0,5.0,43,0.00,,,0.00,,2013-05-25 16:42:00,
2013-05-25 11:52:00,69.0,47.0,30.25,East,90,0.0,6.0,45,0.00,,,0.00,,2013-05-25 16:52:00,
2013-05-25 12:02:00,69.0,47.0,30.25,SE,141,0.0,6.0,45,0.00,,,0.00,,2013-05-25 17:02:00,
2013-05-25 12:11:00,69.0,47.0,30.25,SE,141,0.0,6.0,45,0.00,,,0.00,,2013-05-25 17:11:00,
2013-05-25 12:22:00,70.0,47.0,30.25,ENE,76,1.0,6.0,44,0.00,,,0.00,,2013-05-25 17:22:00,
2013-05-25 12:32:00,72.0,48.0,30.24,NNE,17,0.0,2.0,43,0.00,,,0.00,,2013-05-25 17:32:00,
2013-05-25 12:42:00,72.0,48.0,30.24,NNE,17,0.0,2.0,43,0.00,,,0.00,,2013-05-25 17:42:00,
2013-05-25 12:52:00,72.0,49.0,30.24,ENE,76,0.0,4.0,45,0.00,,,0.00,,2013-05-25 17:52:00,
2013-05-25 13:01:00,72.0,48.0,30.24,ENE,74,0.0,5.0,42,0.00,,,0.00,,2013-05-25 18:01:00,
2013-05-25 13:11:00,72.0,48.0,30.24,ENE,74,0.0,5.0,42,0.00,,,0.00,,2013-05-25 18:11:00,
2013-05-25 13:21:00,72.0,46.0,30.24,East,91,1.0,5.0,39,0.00,,,0.00,,2013-05-25 18:21:00,
2013-05-25 13:32:00,72.0,46.0,30.24,East,90,1.0,6.0,39,0.00,,,0.00,,2013-05-25 18:32:00,
2013-05-25 13:42:00,72.0,46.0,30.24,East,90,1.0,6.0,39,0.00,,,0.00,,2013-05-25 18:42:00,
2013-05-25 13:52:00,72.0,47.0,30.24,ENE,63,0.0,2.0,41,0.00,,,0.00,,2013-05-25 18:52:00,
2013-05-25 14:01:00,74.0,44.0,30.22,East,93,0.0,3.0,34,0.00,,,0.00,,2013-05-25 19:01:00,
2013-05-25 14:11:00,74.0,44.0,30.22,East,93,0.0,3.0,34,0.00,,,0.00,,2013-05-25 19:11:00,
2013-05-25 14:21:00,74.0,45.0,30.21,ESE,120,0.0,7.0,35,0.00,,,0.00,,2013-05-25 19:21:00,
2013-05-25 14:32:00,74.0,45.0,30.21,SE,143,0.0,3.0,35,0.00,,,0.00,,2013-05-25 19:32:00,
2013-05-25 14:42:00,74.0,45.0,30.21,SE,143,0.0,3.0,35,0.00,,,0.00,,2013-05-25 19:42:00,
2013-05-25 14:52:00,75.0,44.0,30.20,East,85,0.0,8.0,33,0.00,,,0.00,,2013-05-25 19:52:00,
2013-05-25 15:02:00,75.0,44.0,30.20,East,92,0.0,7.0,33,0.00,,,0.00,,2013-05-25 20:02:00,
2013-05-25 15:11:00,75.0,44.0,30.20,East,92,0.0,7.0,33,0.00,,,0.00,,2013-05-25 20:11:00,
2013-05-25 15:21:00,76.0,43.0,30.20,ENE,75,0.0,3.0,31,0.00,,,0.00,,2013-05-25 20:21:00,
2013-05-25 15:32:00,75.0,42.0,30.20,ENE,71,0.0,4.0,31,0.00,,,0.00,,2013-05-25 20:32:00,
2013-05-25 15:42:00,75.0,42.0,30.20,ENE,71,0.0,4.0,31,0.00,,,0.00,,2013-05-25 20:42:00,
2013-05-25 15:52:00,77.0,46.0,30.19,East,84,0.0,3.0,34,0.00,,,0.00,,2013-05-25 20:52:00,
2013-05-25 16:02:00,76.0,42.0,30.19,East,84,0.0,5.0,30,0.00,,,0.00,,2013-05-25 21:02:00,
2013-05-25 16:11:00,76.0,42.0,30.19,East,84,0.0,5.0,30,0.00,,,0.00,,2013-05-25 21:11:00,
2013-05-25 16:21:00,75.0,43.0,30.19,East,84,0.0,2.0,32,0.00,,,0.00,,2013-05-25 21:21:00,
2013-05-25 16:33:00,75.0,45.0,30.17,East,84,0.0,1.0,35,0.00,,,0.00,,2013-05-25 21:33:00,
2013-05-25 16:43:00,75.0,45.0,30.17,East,84,0.0,1.0,35,0.00,,,0.00,,2013-05-25 21:43:00,
2013-05-25 16:53:00,76.0,46.0,30.17,East,84,0.0,1.0,34,0.00,,,0.00,,2013-05-25 21:53:00,
2013-05-25 17:03:00,75.0,48.0,30.17,East,84,0.0,1.0,38,0.00,,,0.00,,2013-05-25 22:03:00,
2013-05-25 17:12:00,75.0,48.0,30.17,East,84,0.0,1.0,38,0.00,,,0.00,,2013-05-25 22:12:00,
2013-05-25 17:22:00,75.0,49.0,30.17,East,84,0.0,1.0,40,0.00,,,0.00,,2013-05-25 22:22:00,
2013-05-25 17:32:00,75.0,50.0,30.16,East,79,0.0,2.0,42,0.00,,,0.00,,2013-05-25 22:32:00,
2013-05-25 17:42:00,75.0,50.0,30.16,East,79,0.0,2.0,42,0.00,,,0.00,,2013-05-25 22:42:00,
2013-05-25 17:52:00,75.0,51.0,30.16,ENE,61,0.0,6.0,43,0.00,,,0.00,,2013-05-25 22:52:00,
2013-05-25 18:02:00,74.0,52.0,30.16,East,93,1.0,7.0,46,0.00,,,0.00,,2013-05-25 23:02:00,
2013-05-25 18:12:00,74.0,52.0,30.16,East,93,1.0,7.0,46,0.00,,,0.00,,2013-05-25 23:12:00,
2013-05-25 18:22:00,73.0,50.0,30.14,ENE,69,0.0,5.0,45,0.00,,,0.00,,2013-05-25 23:22:00,
2013-05-25 18:32:00,73.0,51.0,30.14,East,80,0.0,4.0,46,0.00,,,0.00,,2013-05-25 23:32:00,
2013-05-25 18:42:00,73.0,52.0,30.11,ESE,104,0.0,5.0,47,0.00,,,0.00,,2013-05-25 23:42:00,
2013-05-25 18:52:00,73.0,52.0,30.11,ESE,104,0.0,5.0,47,0.00,,,0.00,,2013-05-25 23:52:00,
2013-05-25 19:01:00,73.0,53.0,30.11,ESE,103,0.0,3.0,49,0.00,,,0.00,,2013-05-26 00:01:00,
2013-05-25 19:11:00,73.0,53.0,30.11,ESE,103,0.0,3.0,49,0.00,,,0.00,,2013-05-26 00:11:00,
2013-05-25 19:21:00,73.0,54.0,30.12,North,0,0.0,0.0,51,0.00,,,0.00,,2013-05-26 00:21:00,
2013-05-25 19:31:00,72.0,52.0,30.12,North,0,0.0,0.0,50,0.00,,,0.00,,2013-05-26 00:31:00,
2013-05-25 19:42:00,72.0,52.0,30.12,North,0,0.0,0.0,50,0.00,,,0.00,,2013-05-26 00:42:00,
2013-05-25 19:52:00,71.0,54.0,30.12,North,0,0.0,0.0,54,0.00,,,0.00,,2013-05-26 00:52:00,
2013-05-25 20:01:00,69.0,54.0,30.09,North,0,0.0,0.0,58,0.00,,,0.00,,2013-05-26 01:01:00,
2013-05-25 20:11:00,69.0,54.0,30.09,North,0,0.0,0.0,58,0.00,,,0.00,,2013-05-26 01:11:00,
2013-05-25 20:21:00,69.0,54.0,30.09,North,0,0.0,0.0,58,0.00,,,0.00,,2013-05-26 01:21:00,
2013-05-25 20:32:00,66.0,53.0,30.10,North,0,0.0,0.0,64,0.00,,,0.00,,2013-05-26 01:32:00,
2013-05-25 20:42:00,66.0,53.0,30.10,North,0,0.0,0.0,64,0.00,,,0.00,,2013-05-26 01:42:00,
2013-05-25 20:52:00,64.0,53.0,30.10,North,0,0.0,0.0,68,0.00,,,0.00,,2013-05-26 01:52:00,
2013-05-25 21:02:00,63.0,54.0,30.10,North,0,0.0,0.0,72,0.00,,,0.00,,2013-05-26 02:02:00,
2013-05-25 21:11:00,63.0,54.0,30.10,North,0,0.0,0.0,72,0.00,,,0.00,,2013-05-26 02:11:00,
2013-05-25 21:21:00,63.0,54.0,30.10,North,0,0.0,0.0,73,0.00,,,0.00,,2013-05-26 02:21:00,
2013-05-25 21:32:00,62.0,55.0,30.10,North,0,0.0,0.0,78,0.00,,,0.00,,2013-05-26 02:32:00,
2013-05-25 21:42:00,62.0,55.0,30.10,North,0,0.0,0.0,78,0.00,,,0.00,,2013-05-26 02:42:00,
2013-05-25 21:52:00,61.0,54.0,30.10,North,0,0.0,0.0,79,0.00,,,0.00,,2013-05-26 02:52:00,
2013-05-25 22:01:00,60.0,54.0,30.11,North,0,0.0,0.0,82,0.00,,,0.00,,2013-05-26 03:01:00,
2013-05-25 22:11:00,60.0,54.0,30.11,North,0,0.0,0.0,82,0.00,,,0.00,,2013-05-26 03:11:00,
2013-05-25 22:21:00,60.0,55.0,30.11,North,0,0.0,0.0,83,0.00,,,0.00,,2013-05-26 03:21:00,
2013-05-25 22:33:00,60.0,55.0,30.11,North,0,0.0,0.0,84,0.00,,,0.00,,2013-05-26 03:33:00,
2013-05-25 22:42:00,60.0,55.0,30.11,North,0,0.0,0.0,84,0.00,,,0.00,,2013-05-26 03:42:00,
2013-05-25 22:53:00,59.0,55.0,30.13,North,0,0.0,0.0,86,0.00,,,0.00,,2013-05-26 03:53:00,
2013-05-25 23:02:00,59.0,55.0,30.13,North,0,0.0,0.0,87,0.00,,,0.00,,2013-05-26 04:02:00,
2013-05-25 23:12:00,59.0,55.0,30.13,North,0,0.0,0.0,87,0.00,,,0.00,,2013-05-26 04:12:00,
2013-05-25 23:23:00,59.0,56.0,30.12,North,0,0.0,0.0,89,0.00,,,0.00,,2013-05-26 04:23:00,
2013-05-25 23:33:00,59.0,56.0,30.12,North,0,0.0,0.0,89,0.00,,,0.00,,2013-05-26 04:33:00,
2013-05-25 23:42:00,59.0,56.0,30.12,North,0,0.0,0.0,89,0.00,,,0.00,,2013-05-26 04:42:00,
2013-05-25 23:52:00,58.0,55.0,30.12,North,0,0.0,0.0,90,0.00,,,0.00,,2013-05-26 04:52:00,